Torna al catalogo

QPS-SAR-7 TSUKUYOMI-II

AttivoScienzaVLEO
NORAD 59447·PAYLOAD·🇯🇵 Japan

Lanciato Apr 7, 2024 da Cape Canaveral Space Force Station

Loading…

Prossimi Passaggi (prossime 24 ore)

TLE

AggiornatoSource: Space-Track

Epoca: Sep 14, 2026, 15:35 UTC

1 59447U 24066F   26257.64942140  .00005437  00000-0  34557-3 0  9995
2 59447  45.6026 135.4605 0001045 147.8405 212.2544 15.09895597133743

Traccia QPS-SAR-7 TSUKUYOMI-II in tempo reale con AllMySat

Download on the App Store